Overview Statistics Trail Chart Weather Telemetry Raw packets
 

This is the latest recevied weather packets stored in our database for station/object WA1TYB-13. If no packets are shown the sender has not sent any weather packets the latest 10 day(s).

<< 107 108 109 110 111 112 113 >>
Time Temp. Humidity Pressure Rain* Wind** Luminosity Snow
1787799994 20° C 45% 1020.5 hPa 0 mm - 0 W/m² -
1787799696 19.44° C 45% 1020.5 hPa 0 mm - 0 W/m² -
1787799390 20.56° C 44% 1020.3 hPa 0 mm - 0 W/m² -
1787799089 21.11° C 39% 1020.3 hPa 0 mm - 0 W/m² -
1787798788 21.11° C 39% 1020.3 hPa 0 mm - 0 W/m² -
1787798484 21.67° C 39% 1020.2 hPa 0 mm - 0 W/m² -
1787798179 22.22° C 36% 1020.2 hPa 0 mm - 0 W/m² -
1787797878 22.78° C 35% 1020.2 hPa 0 mm - 0 W/m² -
1787797573 22.78° C 34% 1020 hPa 0 mm - 0 W/m² -
1787797267 22.22° C 38% 1019.8 hPa 0 mm - 0 W/m² -
1787796963 22.78° C 38% 1020.2 hPa 0 mm - 0 W/m² -
1787796662 22.78° C 35% 1019.9 hPa 0 mm - 3 W/m² -
1787796358 22.78° C 37% 1020 hPa 0 mm - 5 W/m² -
1787796054 23.89° C 32% 1020.3 hPa 0 mm - 7 W/m² -
1787795751 23.33° C 33% 1019.9 hPa 0 mm - 9 W/m² -
1787795446 23.89° C 35% 1019.9 hPa 0 mm - 14 W/m² -
1787795145 23.33° C 35% 1020 hPa 0 mm - 17 W/m² -
1787794844 22.22° C 40% 1020.2 hPa 0 mm - 21 W/m² -
1787794540 22.78° C 44% 1020.2 hPa 0 mm - 26 W/m² -
1787794235 22.78° C 50% 1020.3 hPa 0 mm - 32 W/m² -
1787793930 24.44° C 42% 1020.2 hPa 0 mm - 42 W/m² -
1787793627 24.44° C 39% 1019.9 hPa 0 mm - 48 W/m² -
1787793322 25.56° C 31% 1020.2 hPa 0 mm - 55 W/m² -
1787793022 25° C 32% 1020.3 hPa 0 mm - 58 W/m² -
1787792717 25° C 29% 1020.8 hPa 0 mm - 62 W/m² -

* Rain latest hour (hover to see other rain measurements)
** Current wind speed in m/s (hover to see current wind gust speed)